FALCON 9 DEB (53752 NORAD) Tracking and Keplerian Element Data

This shows tracking and keplerian element data for the satellite.

Feedback or suggestion? Click here.




ElementValue
Catalog53752
NameFALCON 9 DEB
Epoch Orbit664
Epoch Day289.58985217
Epoch Year2022
RAAN60.5511
Inclination53.1953
Eccentricity0.0006516
Argument of Perigee312.1572
Mean Anonmoly47.8925
Mean Motion16.45154076
Decay Rate0.10742372
L11 53752U 22107BE 22289.58985217 .10742372 12565-4 29563-3 0 9999
L22 53752 53.1953 60.5511 0006516 312.1572 47.8925 16.45154076 6647



Live tracking and technical data element details for FALCON 9 DEB (NORAD 53752). FALCON 9 DEB can be tracked NOW for your location showing map with azimuth and elevation plus other details from your city location.







IsCatalogInMostPopularTable: catalog: 53752, numindb: -1

Insert: records affected: 1


GetName: 53752 FALCON 9 DEB

Hit Count: inserted at: Thu, 08 Dec 2022 10:29:52 GMT